Content
SEND FEEDBACK

Daily
Averages
Monthly
Summary
United States of America

BEACON, NEW YORK


Home > North America > United States > New York
Elevation: 272 feet     Latitude: 41 31N     Longitude: 073 55W

WEATHER
 
SELECT A DAY
Number of Records: 194,633;   Date Range: 1/1/95 - 8/30/14
 
SHARE

PRINT THIS DATA

[ ← Previous Day ]
WEATHER ALMANAC - FEBRUARY 25, 2013
[ Next Day → ]
[ °C ]   °F
Weather ElementAverageHighLow
Temperature34.1 °F44.1 °F (2:53 pm)23 °F (4:53 am)
Dewpoint25.1 °F28.9 °F (10:53 am)19.9 °F (4:53 am)
Humidity71.5 %96 % (1:53 am)49 % (3:53 pm)
Barometer30.13 in30.23 in (10:53 pm)30.00 in (1:53 am)
Wind Speed2.3 mph8.1 mph (1:53 pm)
Weather ElementAverage
Visibility8.9 mi
Wind DirectionNNE (32.3 °)

Weather ElementTotal
Precipitation---
Heating Degree Days31.5 (Base 65)
Averaged from 22 records on February 25, 2013
WEATHER CONDITIONS BREAKOUT
WIND DIRECTION BREAKOUT
WEATHER BY HOUR - FEBRUARY 25, 2013
[ °C ]   °F
Local TimeTemperatureDewpointHumidityBarometerVisibilityWind DirectionWind SpeedGust SpeedPrecipitationEventsConditions
1:53 AM24.1 °F23.0 °F96 %30.00 in5.0 miCalmClear
2:53 AM24.1 °F21.0 °F88 %30.01 in6.0 miCalmClear
3:53 AM24.1 °F21.9 °F91 %30.02 in6.0 miCalmClear
4:53 AM23.0 °F19.9 °F88 %30.04 in6.0 miCalmClear
5:53 AM23.0 °F19.9 °F88 %30.06 in6.0 miCalmClear
6:53 AM23.0 °F21.0 °F92 %30.08 in10.0 miCalmScattered Clouds
7:53 AM27.0 °F24.1 °F89 %30.10 in10.0 miCalmPartly Cloudy
8:53 AM32.0 °F25.0 °F75 %30.11 in8.0 miCalmPartly Cloudy
9:53 AM37.0 °F28.0 °F70 %30.12 in10.0 miVariable3.5 mphMostly Cloudy
10:53 AM39.9 °F28.9 °F65 %30.12 in10.0 miVariable4.6 mphPartly Cloudy
11:53 AM41.0 °F27.0 °F57 %30.12 in10.0 miNW (310°)6.9 mphOvercast
1:53 PM43.0 °F26.1 °F51 %30.12 in10.0 miNNE (20°)8.1 mphMostly Cloudy
2:53 PM44.1 °F27.0 °F51 %30.12 in10.0 miNNE (30°)8.1 mphOvercast
3:53 PM43.0 °F25.0 °F49 %30.14 in10.0 miNW (320°)5.8 mphOvercast
4:53 PM42.1 °F25.0 °F51 %30.15 in10.0 miNNE (20°)5.8 mphOvercast
5:53 PM39.9 °F26.1 °F58 %30.17 in10.0 miNorth (10°)6.9 mphOvercast
6:53 PM39.0 °F26.1 °F60 %30.20 in10.0 miCalmOvercast
7:53 PM39.0 °F25.0 °F57 %30.20 in10.0 miCalmOvercast
8:53 PM37.0 °F27.0 °F67 %30.20 in10.0 miCalmOvercast
9:53 PM36.0 °F28.9 °F76 %30.22 in10.0 miCalmOvercast
10:53 PM35.1 °F28.0 °F76 %30.23 in10.0 miCalmOvercast
11:53 PM34.0 °F28.0 °F79 %30.22 in9.0 miCalmOvercast
Hourly data recorded from KPOU, located miles away from Beacon, New York







STORIES FROM OUR PARTNERS